Location: Mountain_View
(35.6670°N, 81.4000°W)
Time: 23:11:07
(UTC-04:00)

Amateur Radio Satellites - All Passes

Search period start: 19 April 2014 22:41
Search period end: 20 April 2014 22:41
Location: Mountain_View, 35.6670°N, 81.4000°W

Satellite Date Start Highest point End Downlink Frequencies (MHz)
Time Altitude Azimuth
HO-68 19 Apr 22:52:43 22:58:57 33° 263° (W) 23:05:15 435.675 MHz FM
FUNcube-1 19 Apr 23:35:12 23:39:21 54° 260° (W) 23:43:27 145.950 - 145.970 MHz USB
SO-50 19 Apr 23:45:26 23:46:48 11° 44° (NE) 23:48:09 436.795 FM
Oscar 11 19 Apr 23:46:45 23:48:35 12° 268° (W) 23:50:25 145.825 FM, Beacon 2401.500 USB
ISS 19 Apr 23:55:04 23:57:44 22° 230° (SW) 00:00:22 145.800 FM
Sapphire 20 Apr 00:21:29 00:26:07 30° 108° (ESE) 00:30:46 437.095 MHz 1200 baud AX-25 AFSK
PCSat 20 Apr 01:05:24 01:10:47 83° 115° (ESE) 01:16:14 145.825 MHz
SO-50 20 Apr 01:23:20 01:28:01 88° 61° (ENE) 01:32:45 436.795 FM
Oscar 10/S400 20 Apr 01:43:50 01:58:06 22° 135° (SE) 02:20:44 145.825 - 145.975 CW/USB, Beacon 145.810 USB
Sapphire 20 Apr 02:04:34 02:09:25 33° 304° (NW) 02:14:17 437.095 MHz 1200 baud AX-25 AFSK
UOSAT-12 20 Apr 02:05:11 02:07:57 15° 46° (NE) 02:10:42 437.025 FM, 437.400 FM
AO-27 20 Apr 02:14:16 02:15:54 11° 91° (E) 02:17:33 436.795 MHz FM
KITSAT 1 20 Apr 02:22:37 02:29:35 33° 106° (ESE) 02:36:33 435.175 FM
ITAMSAT 1 20 Apr 02:23:46 02:26:37 15° 93° (E) 02:29:26 435.822 SSB
Oscar 19 20 Apr 02:26:06 02:30:45 32° 97° (E) 02:35:22 437.125 CW, 437.150 USB
AO-Echo 20 Apr 02:27:38 02:28:39 11° 91° (E) 02:29:39 ?
Oscar 16 20 Apr 02:34:15 02:39:11 42° 99° (E) 02:44:05 437.025 USB, Beacon 2401.1428
OPAL 20 Apr 02:39:24 02:43:53 34° 68° (ENE) 02:48:27 ?
PCSat 20 Apr 02:52:07 02:54:53 14° 313° (NW) 02:57:39 145.825 MHz
Uribyol 2 20 Apr 03:10:18 03:15:18 48° 100° (E) 03:20:17 436.500 FM
UOSAT-12 20 Apr 03:43:52 03:48:33 65° 243° (WSW) 03:53:10 437.025 FM, 437.400 FM
Gurwin Techsat 1B 20 Apr 03:46:21 03:51:01 31° 97° (E) 03:55:39 435.225 FM
AO-27 20 Apr 03:50:42 03:55:51 70° 285° (WNW) 04:00:59 436.795 MHz FM
ITAMSAT 1 20 Apr 04:01:21 04:06:24 55° 287° (WNW) 04:11:26 435.822 SSB
AO-Echo 20 Apr 04:03:08 04:07:50 62° 285° (WNW) 04:12:27 ?
Oscar 19 20 Apr 04:05:39 04:09:55 26° 292° (WNW) 04:14:11 437.125 CW, 437.150 USB
Oscar 16 20 Apr 04:14:25 04:18:12 21° 294° (WNW) 04:21:58 437.025 USB, Beacon 2401.1428
KITSAT 1 20 Apr 04:16:47 04:24:37 51° 304° (NW) 04:32:30 435.175 FM
OPAL 20 Apr 04:18:47 04:22:47 24° 263° (W) 04:26:50 ?
Uosat F 20 Apr 04:23:24 04:26:23 16° 93° (E) 04:29:21 435.120 FM
TMSAT-1 20 Apr 04:33:46 04:39:02 64° 101° (ESE) 04:44:16 436.925 FM
Uribyol 2 20 Apr 04:50:55 04:54:22 18° 295° (WNW) 04:57:49 436.500 FM
AO-7 20 Apr 04:54:34 05:01:24 28° 97° (E) 05:08:11 29.400 - 29.500 MHz
JAS-1B 20 Apr 04:55:22 05:00:47 45° 100° (E) 05:06:31 435.800 - 435.900 CW/SSB
AO-40 20 Apr 05:16:05 10:54:55 42° 180° (S) 17:11:41 Beacon 2401.320
Gurwin Techsat 1B 20 Apr 05:26:22 05:30:51 29° 291° (WNW) 05:35:20 435.225 FM
RS-15 20 Apr 05:34:14 05:41:31 20° 101° (E) 05:48:36 29.354 - 29.394 USB, Beacon 29.352 USB
Uosat F 20 Apr 06:00:36 06:05:24 49° 288° (WNW) 06:10:12 435.120 FM
TMSAT-1 20 Apr 06:15:36 06:18:21 15° 297° (WNW) 06:21:07 436.925 FM
KITSAT 1 20 Apr 06:19:11 06:22:11 12° 327° (NNW) 06:25:11 435.175 FM
Hamsat 20 Apr 06:45:40 06:48:45 19° 94° (E) 06:51:49 145.90 MHz
AO-7 20 Apr 06:46:24 06:54:29 58° 292° (WNW) 07:02:35 29.400 - 29.500 MHz
JAS-1B 20 Apr 06:47:08 06:51:11 20° 295° (WNW) 06:55:20 435.800 - 435.900 CW/SSB
STRAND 1 20 Apr 06:56:47 07:01:42 49° 72° (ENE) 07:06:36 ?
JAS-2 20 Apr 07:35:32 07:39:56 23° 97° (E) 07:44:39 435.800 - 435.900 CW/SSB, 435.910 FM
RS-15 20 Apr 07:40:58 07:52:25 88° 298° (WNW) 08:03:29 29.354 - 29.394 USB, Beacon 29.352 USB
SO-67 20 Apr 07:44:32 07:46:02 12° 93° (E) 07:47:32 435.3500 MHz FM
PANSAT 20 Apr 08:13:15 08:15:15 14° 161° (SSE) 08:17:16 not established
MaSat-1 20 Apr 08:16:26 08:19:27 41° 248° (WSW) 08:23:01 437.345 MHz
Hamsat 20 Apr 08:20:53 08:24:45 32° 288° (WNW) 08:28:37 145.90 MHz
STRAND 1 20 Apr 08:37:55 08:41:06 17° 267° (W) 08:44:18 ?
AO-7 20 Apr 08:43:54 08:45:31 11° 312° (NW) 08:47:08 29.400 - 29.500 MHz
Sapphire 20 Apr 09:13:05 09:16:09 15° 48° (NE) 09:19:12 437.095 MHz 1200 baud AX-25 AFSK
SO-67 20 Apr 09:16:10 09:19:14 29° 287° (WNW) 09:22:18 435.3500 MHz FM
JAS-2 20 Apr 09:20:00 09:25:04 40° 288° (WNW) 09:30:37 435.800 - 435.900 CW/SSB, 435.910 FM
PANSAT 20 Apr 09:51:41 09:54:56 26° 173° (S) 09:58:10 not established
PCSat 20 Apr 09:56:35 10:01:33 36° 57° (ENE) 10:06:29 145.825 MHz
RS-15 20 Apr 09:57:33 10:06:23 26° 322° (NW) 10:15:07 29.354 - 29.394 USB, Beacon 29.352 USB
Oscar 11 20 Apr 10:01:25 10:02:21 11° 91° (E) 10:03:17 145.825 FM, Beacon 2401.500 USB
KITSAT 1 20 Apr 10:20:30 10:23:15 12° 32° (NNE) 10:25:59 435.175 FM
HO-68 20 Apr 10:22:26 10:29:30 57° 102° (ESE) 10:36:32 435.675 MHz FM
Sapphire 20 Apr 10:54:45 11:00:10 77° 246° (WSW) 11:05:33 437.095 MHz 1200 baud AX-25 AFSK
Saudisat 1A 20 Apr 11:05:19 11:09:38 51° 116° (ESE) 11:13:58 436.775 MHz
FUNcube-1 20 Apr 11:27:19 11:31:13 33° 98° (E) 11:35:11 145.950 - 145.970 MHz USB
PANSAT 20 Apr 11:31:28 11:34:43 26° 186° (S) 11:37:58 not established
Oscar 11 20 Apr 11:34:34 11:38:50 55° 285° (WNW) 11:43:05 145.825 FM, Beacon 2401.500 USB
PCSat 20 Apr 11:40:16 11:44:47 27° 253° (WSW) 11:49:16 145.825 MHz
HO-68 20 Apr 12:11:06 12:16:41 25° 298° (WNW) 12:22:16 435.675 MHz FM
KITSAT 1 20 Apr 12:13:03 12:20:52 49° 56° (NE) 12:28:36 435.175 FM
RS-15 20 Apr 12:20:56 12:24:37 12° 358° (N) 12:28:18 29.354 - 29.394 USB, Beacon 29.352 USB
Saudisat 1A 20 Apr 12:46:37 12:49:31 17° 312° (NW) 12:52:25 436.775 MHz
FUNcube-1 20 Apr 13:04:30 13:07:23 18° 291° (WNW) 13:10:18 145.950 - 145.970 MHz USB
PANSAT 20 Apr 13:12:22 13:14:24 14° 199° (SSW) 13:16:25 not established
AO-27 20 Apr 13:29:23 13:32:09 15° 64° (ENE) 13:34:56 436.795 MHz FM
AO-Echo 20 Apr 13:37:10 13:39:35 13° 64° (ENE) 13:41:58 ?
ITAMSAT 1 20 Apr 13:39:05 13:42:30 18° 65° (ENE) 13:45:55 435.822 SSB
Oscar 19 20 Apr 13:40:14 13:44:51 35° 70° (ENE) 13:49:30 437.125 CW, 437.150 USB
Oscar 16 20 Apr 13:48:23 13:53:15 46° 72° (ENE) 13:58:10 437.025 USB, Beacon 2401.1428
KITSAT 1 20 Apr 14:08:56 14:15:56 34° 253° (WSW) 14:22:54 435.175 FM
Uribyol 2 20 Apr 14:25:20 14:30:21 54° 73° (ENE) 14:35:22 436.500 FM
RS-15 20 Apr 14:34:46 14:43:06 24° 35° (NE) 14:51:30 29.354 - 29.394 USB, Beacon 29.352 USB
OPAL 20 Apr 14:54:31 14:56:10 11° 93° (E) 14:57:48 ?
ISS 20 Apr 14:58:21 15:01:34 48° 134° (SE) 15:04:49 145.800 FM
Oscar 10/S400 20 Apr 14:59:51 16:07:41 18° 273° (W) 17:58:54 145.825 - 145.975 CW/USB, Beacon 145.810 USB
Gurwin Techsat 1B 20 Apr 15:04:36 15:09:25 37° 70° (ENE) 15:14:15 435.225 FM
AO-27 20 Apr 15:05:59 15:11:07 62° 259° (WSW) 15:16:15 436.795 MHz FM
AO-Echo 20 Apr 15:12:32 15:17:46 68° 258° (WSW) 15:22:55 ?
ITAMSAT 1 20 Apr 15:16:34 15:21:34 49° 260° (W) 15:26:36 435.822 SSB
Oscar 19 20 Apr 15:20:09 15:24:13 24° 265° (W) 15:28:19 437.125 CW, 437.150 USB
Oscar 16 20 Apr 15:29:23 15:32:48 18° 266° (W) 15:36:15 437.025 USB, Beacon 2401.1428
Uosat F 20 Apr 15:34:11 15:37:25 17° 65° (ENE) 15:40:38 435.120 FM
SO-50 20 Apr 15:35:42 15:40:04 57° 116° (ESE) 15:44:29 436.795 FM
JAS-1B 20 Apr 15:36:43 15:43:52 36° 69° (ENE) 15:49:59 435.800 - 435.900 CW/SSB
AO-7 20 Apr 15:50:47 15:57:41 31° 60° (ENE) 16:04:34 29.400 - 29.500 MHz
TMSAT-1 20 Apr 15:51:35 15:56:51 75° 75° (ENE) 16:02:08 436.925 FM
Uribyol 2 20 Apr 16:07:13 16:10:06 15° 267° (W) 16:13:01 436.500 FM
OPAL 20 Apr 16:30:16 16:35:29 73° 287° (WNW) 16:40:40 ?
ISS 20 Apr 16:36:04 16:38:29 18° 330° (NNW) 16:40:55 145.800 FM
Gurwin Techsat 1B 20 Apr 16:45:14 16:49:26 24° 265° (W) 16:53:39 435.225 FM
RS-15 20 Apr 16:46:20 16:57:22 81° 60° (ENE) 17:08:42 29.354 - 29.394 USB, Beacon 29.352 USB
Uosat F 20 Apr 17:10:56 17:15:47 48° 260° (W) 17:20:39 435.120 FM
SO-50 20 Apr 17:18:21 17:21:00 15° 313° (NW) 17:23:40 436.795 FM
JAS-1B 20 Apr 17:26:36 17:34:19 41° 260° (W) 17:40:54 435.800 - 435.900 CW/SSB
TMSAT-1 20 Apr 17:35:56 17:37:15 11° 270° (W) 17:38:35 436.925 FM
AO-7 20 Apr 17:41:56 17:49:59 56° 257° (WSW) 17:58:06 29.400 - 29.500 MHz
UOSAT-12 20 Apr 17:52:06 17:56:37 77° 118° (ESE) 18:01:15 437.025 FM, 437.400 FM
RS-15 20 Apr 19:00:41 19:08:26 23° 258° (WSW) 19:16:24 29.354 - 29.394 USB, Beacon 29.352 USB
Hamsat 20 Apr 19:10:57 19:15:06 64° 260° (W) 19:19:19 145.90 MHz
STRAND 1 20 Apr 19:11:12 19:14:59 21° 95° (E) 19:18:45 ?
JAS-2 20 Apr 19:29:03 19:34:51 58° 74° (ENE) 19:40:07 435.800 - 435.900 CW/SSB, 435.910 FM
UOSAT-12 20 Apr 19:35:14 19:37:20 13° 316° (NW) 19:39:27 437.025 FM, 437.400 FM
Saudisat 1A 20 Apr 19:35:40 19:38:52 19° 49° (NE) 19:42:02 436.775 MHz
SO-67 20 Apr 19:46:33 19:49:56 52° 76° (ENE) 19:53:21 435.3500 MHz FM
HO-68 20 Apr 20:48:24 20:54:31 32° 64° (ENE) 21:00:39 435.675 MHz FM
STRAND 1 20 Apr 20:49:34 20:54:16 39° 289° (WNW) 20:58:57 ?
Saudisat 1A 20 Apr 21:14:30 21:18:37 40° 246° (WSW) 21:22:41 436.775 MHz
JAS-2 20 Apr 21:16:54 21:20:09 15° 266° (W) 21:23:16 435.800 - 435.900 CW/SSB, 435.910 FM
ISS 20 Apr 21:29:58 21:32:33 20° 31° (NNE) 21:35:08 145.800 FM
MaSat-1 20 Apr 22:17:35 22:20:15 29° 295° (WNW) 22:22:38 437.345 MHz
FUNcube-1 20 Apr 22:22:11 22:25:10 19° 69° (ENE) 22:28:08 145.950 - 145.970 MHz USB
Oscar 11 20 Apr 22:26:28 22:30:46 79° 77° (ENE) 22:35:05 145.825 FM, Beacon 2401.500 USB
